SDO

Last updated on Tue Sep 16 2025 00:02:46 GMT+0000 (Coordinated Universal Time)

1 36395U 10005A 25258.56420919 -.00000082 00000+0 00000+0 0 9999 2 36395 34.0708 90.5313 0001530 106.3652 259.3523 1.00274241 57319
UTC large
Height (km)
Speed (km/s)
/
Latitude / Longitude
Inclination (degrees)
Orbital Period (minutes)
Azimuth
Elevation
Range (km)
Doppler Factor

Next 0 passes for location: London (51.5072 / 0.1276)

Sorry there are no passes over London.